Year,Month,Day,Hour,Minute,Value (Times are PST for temperature in C)
2013,07,30,00,00,17.70
2013,07,30,00,01,17.70
2013,07,30,00,02,17.70
2013,07,30,00,03,17.70
2013,07,30,00,04,17.70
2013,07,30,00,05,17.70
2013,07,30,00,06,17.70
2013,07,30,00,07,17.70
2013,07,30,00,08,17.70
2013,07,30,00,09,17.70
2013,07,30,00,10,17.70
2013,07,30,00,11,17.60
2013,07,30,00,12,17.60
2013,07,30,00,13,17.60
2013,07,30,00,14,17.60
2013,07,30,00,15,17.60
2013,07,30,00,16,17.60
2013,07,30,00,17,17.50
2013,07,30,00,18,17.50
2013,07,30,00,19,17.50
2013,07,30,00,20,17.50
2013,07,30,00,21,17.50
2013,07,30,00,22,17.40
2013,07,30,00,23,17.40
2013,07,30,00,24,17.40
2013,07,30,00,25,17.40
2013,07,30,00,26,17.40
2013,07,30,00,27,17.40
2013,07,30,00,28,17.30
2013,07,30,00,29,17.30
2013,07,30,00,30,17.30
2013,07,30,00,31,17.30
2013,07,30,00,32,17.30
2013,07,30,00,33,17.20
2013,07,30,00,34,17.20
2013,07,30,00,35,17.20
2013,07,30,00,36,17.10
2013,07,30,00,37,17.10
2013,07,30,00,38,17.10
2013,07,30,00,39,17.10
2013,07,30,00,40,17.10
2013,07,30,00,41,17.10
2013,07,30,00,42,17.10
2013,07,30,00,43,17.10
2013,07,30,00,44,17.10
2013,07,30,00,45,17.10
2013,07,30,00,46,17.10
2013,07,30,00,47,17.10
2013,07,30,00,48,17.10
2013,07,30,00,49,17.10
2013,07,30,00,50,17.10
2013,07,30,00,51,17.10
2013,07,30,00,52,17.10
2013,07,30,00,53,17.10
2013,07,30,00,54,17.10
2013,07,30,00,55,17.00
2013,07,30,00,56,17.00
2013,07,30,00,57,17.00
2013,07,30,00,58,17.00
2013,07,30,00,59,16.90
2013,07,30,01,00,16.90
2013,07,30,01,01,16.90
2013,07,30,01,02,16.90
2013,07,30,01,03,16.90
2013,07,30,01,04,16.90
2013,07,30,01,05,16.80
2013,07,30,01,06,16.80
2013,07,30,01,07,16.80
2013,07,30,01,08,16.80
2013,07,30,01,09,16.80
2013,07,30,01,10,16.80
2013,07,30,01,11,16.80
2013,07,30,01,12,16.70
2013,07,30,01,13,16.70
2013,07,30,01,14,16.70
2013,07,30,01,15,16.70
2013,07,30,01,16,16.70
2013,07,30,01,17,16.70
2013,07,30,01,18,16.70
2013,07,30,01,19,16.70
2013,07,30,01,20,16.70
2013,07,30,01,21,16.70
2013,07,30,01,22,16.70
2013,07,30,01,23,16.60
2013,07,30,01,24,16.60
2013,07,30,01,25,16.60
2013,07,30,01,26,16.60
2013,07,30,01,27,16.60
2013,07,30,01,28,16.60
2013,07,30,01,29,16.60
2013,07,30,01,30,16.60
2013,07,30,01,31,16.60
2013,07,30,01,32,16.60
2013,07,30,01,33,16.70
2013,07,30,01,34,16.70
2013,07,30,01,35,16.70
2013,07,30,01,36,16.70
2013,07,30,01,37,16.70
2013,07,30,01,38,16.60
2013,07,30,01,39,16.60
2013,07,30,01,40,16.60
2013,07,30,01,41,16.60
2013,07,30,01,42,16.60
2013,07,30,01,43,16.60
2013,07,30,01,44,16.60
2013,07,30,01,45,16.60
2013,07,30,01,46,16.60
2013,07,30,01,47,16.60
2013,07,30,01,48,16.60
2013,07,30,01,49,16.60
2013,07,30,01,50,16.60
2013,07,30,01,51,16.50
2013,07,30,01,52,16.60
2013,07,30,01,53,16.60
2013,07,30,01,54,16.60
2013,07,30,01,55,16.60
2013,07,30,01,56,16.60
2013,07,30,01,57,16.60
2013,07,30,01,58,16.50
2013,07,30,01,59,16.50
2013,07,30,02,00,16.50
2013,07,30,02,01,16.50
2013,07,30,02,02,16.40
2013,07,30,02,03,16.40
2013,07,30,02,04,16.40
2013,07,30,02,05,16.40
2013,07,30,02,06,16.40
2013,07,30,02,07,16.40
2013,07,30,02,08,16.40
2013,07,30,02,09,16.40
2013,07,30,02,10,16.40
2013,07,30,02,11,16.40
2013,07,30,02,12,16.40
2013,07,30,02,13,16.40
2013,07,30,02,14,16.40
2013,07,30,02,15,16.50
2013,07,30,02,16,16.50
2013,07,30,02,17,16.60
2013,07,30,02,18,16.60
2013,07,30,02,19,16.60
2013,07,30,02,20,16.60
2013,07,30,02,21,16.60
2013,07,30,02,22,16.70
2013,07,30,02,23,16.70
2013,07,30,02,24,16.70
2013,07,30,02,25,16.70
2013,07,30,02,26,16.70
2013,07,30,02,27,16.70
2013,07,30,02,28,16.60
2013,07,30,02,29,16.60
2013,07,30,02,30,16.60
2013,07,30,02,31,16.50
2013,07,30,02,32,16.50
2013,07,30,02,33,16.40
2013,07,30,02,34,16.40
2013,07,30,02,35,16.30
2013,07,30,02,36,16.30
2013,07,30,02,37,16.30
2013,07,30,02,38,16.20
2013,07,30,02,39,16.20
2013,07,30,02,40,16.20
2013,07,30,02,41,16.10
2013,07,30,02,42,16.10
2013,07,30,02,43,16.10
2013,07,30,02,44,16.00
2013,07,30,02,45,15.90
2013,07,30,02,46,15.90
2013,07,30,02,47,15.90
2013,07,30,02,48,15.90
2013,07,30,02,49,15.80
2013,07,30,02,50,15.80
2013,07,30,02,51,15.80
2013,07,30,02,52,15.80
2013,07,30,02,53,15.80
2013,07,30,02,54,15.70
2013,07,30,02,55,15.70
2013,07,30,02,56,15.70
2013,07,30,02,57,15.70
2013,07,30,02,58,15.70
2013,07,30,02,59,15.70
2013,07,30,03,00,15.70
2013,07,30,03,01,15.70
2013,07,30,03,02,15.60
2013,07,30,03,03,15.60
2013,07,30,03,04,15.60
2013,07,30,03,05,15.60
2013,07,30,03,06,15.60
2013,07,30,03,07,15.60
2013,07,30,03,08,15.60
2013,07,30,03,09,15.60
2013,07,30,03,10,15.60
2013,07,30,03,11,15.60
2013,07,30,03,12,15.50
2013,07,30,03,13,15.50
2013,07,30,03,14,15.50
2013,07,30,03,15,15.50
2013,07,30,03,16,15.50
2013,07,30,03,17,15.50
2013,07,30,03,18,15.40
2013,07,30,03,19,15.40
2013,07,30,03,20,15.40
2013,07,30,03,21,15.40
2013,07,30,03,22,15.40
2013,07,30,03,23,15.30
2013,07,30,03,24,15.30
2013,07,30,03,25,15.30
2013,07,30,03,26,15.30
2013,07,30,03,27,15.30
2013,07,30,03,28,15.30
2013,07,30,03,29,15.20
2013,07,30,03,30,15.20
2013,07,30,03,31,15.20
2013,07,30,03,32,15.20
2013,07,30,03,33,15.20
2013,07,30,03,34,15.20
2013,07,30,03,35,15.10
2013,07,30,03,36,15.10
2013,07,30,03,37,15.10
2013,07,30,03,38,15.00
2013,07,30,03,39,15.00
2013,07,30,03,40,15.00
2013,07,30,03,41,15.00
2013,07,30,03,42,15.00
2013,07,30,03,43,15.00
2013,07,30,03,44,15.00
2013,07,30,03,45,15.00
2013,07,30,03,46,15.00
2013,07,30,03,47,15.00
2013,07,30,03,48,15.00
2013,07,30,03,49,15.00
2013,07,30,03,50,15.00
2013,07,30,03,51,15.00
2013,07,30,03,52,15.00
2013,07,30,03,53,15.00
2013,07,30,03,54,14.90
2013,07,30,03,55,14.90
2013,07,30,03,56,14.90
2013,07,30,03,57,14.90
2013,07,30,03,58,14.90
2013,07,30,03,59,14.90
2013,07,30,04,00,14.80
2013,07,30,04,01,14.80
2013,07,30,04,02,14.80
2013,07,30,04,03,14.80
2013,07,30,04,04,14.80
2013,07,30,04,05,14.80
2013,07,30,04,06,14.80
2013,07,30,04,07,14.80
2013,07,30,04,08,14.80
2013,07,30,04,09,14.70
2013,07,30,04,10,14.70
2013,07,30,04,11,14.70
2013,07,30,04,12,14.70
2013,07,30,04,13,14.70
2013,07,30,04,14,14.60
2013,07,30,04,15,14.60
2013,07,30,04,16,14.60
2013,07,30,04,17,14.60
2013,07,30,04,18,14.60
2013,07,30,04,19,14.50
2013,07,30,04,20,14.50
2013,07,30,04,21,14.50
2013,07,30,04,22,14.50
2013,07,30,04,23,14.50
2013,07,30,04,24,14.40
2013,07,30,04,25,14.40
2013,07,30,04,26,14.40
2013,07,30,04,27,14.40
2013,07,30,04,28,14.40
2013,07,30,04,29,14.40
2013,07,30,04,30,14.30
2013,07,30,04,31,14.30
2013,07,30,04,32,14.30
2013,07,30,04,33,14.30
2013,07,30,04,34,14.30
2013,07,30,04,35,14.30
2013,07,30,04,36,14.30
2013,07,30,04,37,14.20
2013,07,30,04,38,14.20
2013,07,30,04,39,14.20
2013,07,30,04,40,14.20
2013,07,30,04,41,14.20
2013,07,30,04,42,14.20
2013,07,30,04,43,14.20
2013,07,30,04,44,14.20
2013,07,30,04,45,14.20
2013,07,30,04,46,14.20
2013,07,30,04,47,14.10
2013,07,30,04,48,14.10
2013,07,30,04,49,14.10
2013,07,30,04,50,14.10
2013,07,30,04,51,14.10
2013,07,30,04,52,14.10
2013,07,30,04,53,14.10
2013,07,30,04,54,14.00
2013,07,30,04,55,14.00
2013,07,30,04,56,14.00
2013,07,30,04,57,14.00
2013,07,30,04,58,14.00
2013,07,30,04,59,13.90
2013,07,30,05,00,13.90
2013,07,30,05,01,13.90
2013,07,30,05,02,13.90
2013,07,30,05,03,13.90
2013,07,30,05,04,13.90
2013,07,30,05,05,13.90
2013,07,30,05,06,13.80
2013,07,30,05,07,13.80
2013,07,30,05,08,13.80
2013,07,30,05,09,13.80
2013,07,30,05,10,13.80
2013,07,30,05,11,13.80
2013,07,30,05,12,13.80
2013,07,30,05,13,13.80
2013,07,30,05,14,13.70
2013,07,30,05,15,13.70
2013,07,30,05,16,13.70
2013,07,30,05,17,13.70
2013,07,30,05,18,13.70
2013,07,30,05,19,13.70
2013,07,30,05,20,13.70
2013,07,30,05,21,13.70
2013,07,30,05,22,13.70
2013,07,30,05,23,13.70
2013,07,30,05,24,13.70
2013,07,30,05,25,13.70
2013,07,30,05,26,13.70
2013,07,30,05,27,13.70
2013,07,30,05,28,13.60
2013,07,30,05,29,13.60
2013,07,30,05,30,13.60
2013,07,30,05,31,13.60
2013,07,30,05,32,13.60
2013,07,30,05,33,13.60
2013,07,30,05,34,13.60
2013,07,30,05,35,13.50
2013,07,30,05,36,13.50
2013,07,30,05,37,13.50
2013,07,30,05,38,13.50
2013,07,30,05,39,13.50
2013,07,30,05,40,13.50
2013,07,30,05,41,13.40
2013,07,30,05,42,13.40
2013,07,30,05,43,13.40
2013,07,30,05,44,13.40
2013,07,30,05,45,13.40
2013,07,30,05,46,13.40
2013,07,30,05,47,13.40
2013,07,30,05,48,13.40
2013,07,30,05,49,13.40
2013,07,30,05,50,13.40
2013,07,30,05,51,13.40
2013,07,30,05,52,13.40
2013,07,30,05,53,13.30
2013,07,30,05,54,13.30
2013,07,30,05,55,13.30
2013,07,30,05,56,13.30
2013,07,30,05,57,13.30
2013,07,30,05,58,13.30
2013,07,30,05,59,13.30
2013,07,30,06,00,13.30
2013,07,30,06,01,13.30
2013,07,30,06,02,13.40
2013,07,30,06,03,13.40
2013,07,30,06,04,13.40
2013,07,30,06,05,13.40
2013,07,30,06,06,13.40
2013,07,30,06,07,13.40
2013,07,30,06,08,13.40
2013,07,30,06,09,13.40
2013,07,30,06,10,13.40
2013,07,30,06,11,13.40
2013,07,30,06,12,13.40
2013,07,30,06,13,13.40
2013,07,30,06,14,13.40
2013,07,30,06,15,13.40
2013,07,30,06,16,13.40
2013,07,30,06,17,13.40
2013,07,30,06,18,13.40
2013,07,30,06,19,13.40
2013,07,30,06,20,13.40
2013,07,30,06,21,13.40
2013,07,30,06,22,13.40
2013,07,30,06,23,13.40
2013,07,30,06,24,13.40
2013,07,30,06,25,13.40
2013,07,30,06,26,13.40
2013,07,30,06,27,13.40
2013,07,30,06,28,13.40
2013,07,30,06,29,13.40
2013,07,30,06,30,13.40
2013,07,30,06,31,13.40
2013,07,30,06,32,13.40
2013,07,30,06,33,13.40
2013,07,30,06,34,13.40
2013,07,30,06,35,13.50
2013,07,30,06,36,13.50
2013,07,30,06,37,13.50
2013,07,30,06,38,13.50
2013,07,30,06,39,13.50
2013,07,30,06,40,13.50
2013,07,30,06,41,13.60
2013,07,30,06,42,13.60
2013,07,30,06,43,13.60
2013,07,30,06,44,13.60
2013,07,30,06,45,13.70
2013,07,30,06,46,13.70
2013,07,30,06,47,13.70
2013,07,30,06,48,13.70
2013,07,30,06,49,13.70
2013,07,30,06,50,13.80
2013,07,30,06,51,13.80
2013,07,30,06,52,13.80
2013,07,30,06,53,13.80
2013,07,30,06,54,13.90
2013,07,30,06,55,13.90
2013,07,30,06,56,13.90
2013,07,30,06,57,13.90
2013,07,30,06,58,13.90
2013,07,30,06,59,13.90
2013,07,30,07,00,14.00
2013,07,30,07,01,14.00
2013,07,30,07,02,14.00
2013,07,30,07,03,14.00
2013,07,30,07,04,14.00
2013,07,30,07,05,14.00
2013,07,30,07,06,14.00
2013,07,30,07,07,14.10
2013,07,30,07,08,14.10
2013,07,30,07,09,14.10
2013,07,30,07,10,14.10
2013,07,30,07,11,14.10
2013,07,30,07,12,14.10
2013,07,30,07,13,14.10
2013,07,30,07,14,14.10
2013,07,30,07,15,14.10
2013,07,30,07,16,14.10
2013,07,30,07,17,14.10
2013,07,30,07,18,14.20
2013,07,30,07,19,14.20
2013,07,30,07,20,14.20
2013,07,30,07,21,14.20
2013,07,30,07,22,14.20
2013,07,30,07,23,14.30
2013,07,30,07,24,14.30
2013,07,30,07,25,14.30
2013,07,30,07,26,14.30
2013,07,30,07,27,14.30
2013,07,30,07,28,14.30
2013,07,30,07,29,14.30
2013,07,30,07,30,14.40
2013,07,30,07,31,14.40
2013,07,30,07,32,14.40
2013,07,30,07,33,14.40
2013,07,30,07,34,14.40
2013,07,30,07,35,14.40
2013,07,30,07,36,14.50
2013,07,30,07,37,14.50
2013,07,30,07,38,14.60
2013,07,30,07,39,14.60
2013,07,30,07,40,14.60
2013,07,30,07,41,14.70
2013,07,30,07,42,14.70
2013,07,30,07,43,14.70
2013,07,30,07,44,14.80
2013,07,30,07,45,14.80
2013,07,30,07,46,14.80
2013,07,30,07,47,14.90
2013,07,30,07,48,14.90
2013,07,30,07,49,15.00
2013,07,30,07,50,15.00
2013,07,30,07,51,15.00
2013,07,30,07,52,15.00
2013,07,30,07,53,15.10
2013,07,30,07,54,15.20
2013,07,30,07,55,15.30
2013,07,30,07,56,15.40
2013,07,30,07,57,15.40
2013,07,30,07,58,15.40
2013,07,30,07,59,15.50
2013,07,30,08,00,15.50
2013,07,30,08,01,15.60
2013,07,30,08,02,15.70
2013,07,30,08,03,15.70
2013,07,30,08,04,15.80
2013,07,30,08,05,15.80
2013,07,30,08,06,15.80
2013,07,30,08,07,15.80
2013,07,30,08,08,15.80
2013,07,30,08,09,15.80
2013,07,30,08,10,15.70
2013,07,30,08,11,15.70
2013,07,30,08,12,15.70
2013,07,30,08,13,15.70
2013,07,30,08,14,15.70
2013,07,30,08,15,15.70
2013,07,30,08,16,15.70
2013,07,30,08,17,15.70
2013,07,30,08,18,15.80
2013,07,30,08,19,15.80
2013,07,30,08,20,15.90
2013,07,30,08,21,15.90
2013,07,30,08,22,16.00
2013,07,30,08,23,16.10
2013,07,30,08,24,16.10
2013,07,30,08,25,16.10
2013,07,30,08,26,16.20
2013,07,30,08,27,16.20
2013,07,30,08,28,16.20
2013,07,30,08,29,16.20
2013,07,30,08,30,16.20
2013,07,30,08,31,16.30
2013,07,30,08,32,16.30
2013,07,30,08,33,16.30
2013,07,30,08,34,16.40
2013,07,30,08,35,16.40
2013,07,30,08,36,16.50
2013,07,30,08,37,16.60
2013,07,30,08,38,16.60
2013,07,30,08,39,16.60
2013,07,30,08,40,16.70
2013,07,30,08,41,16.70
2013,07,30,08,42,16.70
2013,07,30,08,43,16.80
2013,07,30,08,44,16.80
2013,07,30,08,45,16.90
2013,07,30,08,46,16.90
2013,07,30,08,47,17.00
2013,07,30,08,48,17.10
2013,07,30,08,49,17.10
2013,07,30,08,50,17.20
2013,07,30,08,51,17.30
2013,07,30,08,52,17.40
2013,07,30,08,53,17.50
2013,07,30,08,54,17.60
2013,07,30,08,55,17.60
2013,07,30,08,56,17.70
2013,07,30,08,57,17.70
2013,07,30,08,58,17.70
2013,07,30,08,59,17.80
2013,07,30,09,00,17.80
2013,07,30,09,01,17.80
2013,07,30,09,02,17.80
2013,07,30,09,03,17.90
2013,07,30,09,04,17.90
2013,07,30,09,05,17.90
2013,07,30,09,06,17.90
2013,07,30,09,07,18.00
2013,07,30,09,08,18.00
2013,07,30,09,09,18.00
2013,07,30,09,10,18.10
2013,07,30,09,11,18.10
2013,07,30,09,12,18.10
2013,07,30,09,13,18.10
2013,07,30,09,14,18.10
2013,07,30,09,15,18.10
2013,07,30,09,16,18.10
2013,07,30,09,17,18.10
2013,07,30,09,18,18.10
2013,07,30,09,19,18.10
2013,07,30,09,20,18.20
2013,07,30,09,21,18.20
2013,07,30,09,22,18.20
2013,07,30,09,23,18.30
2013,07,30,09,24,18.30
2013,07,30,09,25,18.40
2013,07,30,09,26,18.50
2013,07,30,09,27,18.60
2013,07,30,09,28,18.60
2013,07,30,09,29,18.70
2013,07,30,09,30,18.80
2013,07,30,09,31,18.80
2013,07,30,09,32,18.80
2013,07,30,09,33,18.90
2013,07,30,09,34,18.90
2013,07,30,09,35,19.00
2013,07,30,09,36,19.10
2013,07,30,09,37,19.10
2013,07,30,09,38,19.20
2013,07,30,09,39,19.20
2013,07,30,09,40,19.30
2013,07,30,09,41,19.30
2013,07,30,09,42,19.40
2013,07,30,09,43,19.40
2013,07,30,09,44,19.50
2013,07,30,09,45,19.50
2013,07,30,09,46,19.50
2013,07,30,09,47,19.60
2013,07,30,09,48,19.60
2013,07,30,09,49,19.70
2013,07,30,09,50,19.80
2013,07,30,09,51,19.80
2013,07,30,09,52,19.90
2013,07,30,09,53,19.90
2013,07,30,09,54,19.90
2013,07,30,09,55,19.90
2013,07,30,09,56,19.90
2013,07,30,09,57,20.00
2013,07,30,09,58,20.00
2013,07,30,09,59,20.00
2013,07,30,10,00,20.10
2013,07,30,10,01,20.10
2013,07,30,10,02,20.10
2013,07,30,10,03,20.20
2013,07,30,10,04,20.20
2013,07,30,10,05,20.20
2013,07,30,10,06,20.30
2013,07,30,10,07,20.30
2013,07,30,10,08,20.30
2013,07,30,10,09,20.30
2013,07,30,10,10,20.20
2013,07,30,10,11,20.20
2013,07,30,10,12,20.00
2013,07,30,10,13,19.80
2013,07,30,10,14,19.60
2013,07,30,10,15,19.30
2013,07,30,10,16,19.20
2013,07,30,10,17,19.20
2013,07,30,10,18,19.20
2013,07,30,10,19,19.10
2013,07,30,10,20,19.10
2013,07,30,10,21,19.20
2013,07,30,10,22,19.30
2013,07,30,10,23,19.30
2013,07,30,10,24,19.40
2013,07,30,10,25,19.50
2013,07,30,10,26,19.70
2013,07,30,10,27,19.70
2013,07,30,10,28,19.60
2013,07,30,10,29,19.60
2013,07,30,10,30,19.60
2013,07,30,10,31,19.60
2013,07,30,10,32,19.60
2013,07,30,10,33,19.60
2013,07,30,10,34,19.60
2013,07,30,10,35,19.50
2013,07,30,10,36,19.50
2013,07,30,10,37,19.40
2013,07,30,10,38,19.40
2013,07,30,10,39,19.40
2013,07,30,10,40,19.40
2013,07,30,10,41,19.40
2013,07,30,10,42,19.40
2013,07,30,10,43,19.50
2013,07,30,10,44,19.50
2013,07,30,10,45,19.60
2013,07,30,10,46,19.60
2013,07,30,10,47,19.70
2013,07,30,10,48,19.60
2013,07,30,10,49,19.50
2013,07,30,10,50,19.50
2013,07,30,10,51,19.40
2013,07,30,10,52,19.30
2013,07,30,10,53,19.30
2013,07,30,10,54,19.20
2013,07,30,10,55,19.20
2013,07,30,10,56,19.20
2013,07,30,10,57,19.20
2013,07,30,10,58,19.20
2013,07,30,10,59,19.20
2013,07,30,11,00,19.30
2013,07,30,11,01,19.30
2013,07,30,11,02,19.40
2013,07,30,11,03,19.40
2013,07,30,11,04,19.50
2013,07,30,11,05,19.70
2013,07,30,11,06,19.80
2013,07,30,11,07,19.90
2013,07,30,11,08,20.00
2013,07,30,11,09,20.10
2013,07,30,11,10,20.20
2013,07,30,11,11,20.30
2013,07,30,11,12,20.30
2013,07,30,11,13,20.30
2013,07,30,11,14,20.40
2013,07,30,11,15,20.40
2013,07,30,11,16,20.40
2013,07,30,11,17,20.40
2013,07,30,11,18,20.30
2013,07,30,11,19,20.30
2013,07,30,11,20,20.30
2013,07,30,11,21,20.30
2013,07,30,11,22,20.20
2013,07,30,11,23,20.20
2013,07,30,11,24,20.20
2013,07,30,11,25,20.30
2013,07,30,11,26,20.40
2013,07,30,11,27,20.60
2013,07,30,11,28,20.60
2013,07,30,11,29,20.70
2013,07,30,11,30,20.80
2013,07,30,11,31,20.80
2013,07,30,11,32,20.90
2013,07,30,11,33,21.00
2013,07,30,11,34,21.20
2013,07,30,11,35,21.30
2013,07,30,11,36,21.30
2013,07,30,11,37,21.50
2013,07,30,11,38,21.60
2013,07,30,11,39,21.70
2013,07,30,11,40,21.70
2013,07,30,11,41,21.80
2013,07,30,11,42,21.70
2013,07,30,11,43,21.70
2013,07,30,11,44,21.60
2013,07,30,11,45,21.60
2013,07,30,11,46,21.40
2013,07,30,11,47,21.20
2013,07,30,11,48,21.00
2013,07,30,11,49,20.90
2013,07,30,11,50,20.90
2013,07,30,11,51,20.90
2013,07,30,11,52,20.80
2013,07,30,11,53,20.80
2013,07,30,11,54,20.80
2013,07,30,11,55,20.80
2013,07,30,11,56,20.80
2013,07,30,11,57,20.80
2013,07,30,11,58,20.90
2013,07,30,11,59,20.90
2013,07,30,12,00,21.00
2013,07,30,12,01,21.00
2013,07,30,12,02,21.10
2013,07,30,12,03,21.10
2013,07,30,12,04,21.20
2013,07,30,12,05,21.20
2013,07,30,12,06,21.20
2013,07,30,12,07,21.00
2013,07,30,12,08,20.80
2013,07,30,12,09,20.80
2013,07,30,12,10,20.80
2013,07,30,12,11,20.90
2013,07,30,12,12,21.00
2013,07,30,12,13,21.10
2013,07,30,12,14,21.20
2013,07,30,12,15,21.30
2013,07,30,12,16,21.30
2013,07,30,12,17,21.20
2013,07,30,12,18,21.20
2013,07,30,12,19,21.10
2013,07,30,12,20,21.10
2013,07,30,12,21,21.10
2013,07,30,12,22,21.00
2013,07,30,12,23,20.90
2013,07,30,12,24,20.90
2013,07,30,12,25,20.90
2013,07,30,12,26,20.90
2013,07,30,12,27,20.80
2013,07,30,12,28,20.70
2013,07,30,12,29,20.60
2013,07,30,12,30,20.50
2013,07,30,12,31,20.50
2013,07,30,12,32,20.50
2013,07,30,12,33,20.40
2013,07,30,12,34,20.40
2013,07,30,12,35,20.40
2013,07,30,12,36,20.40
2013,07,30,12,37,20.40
2013,07,30,12,38,20.50
2013,07,30,12,39,20.50
2013,07,30,12,40,20.60
2013,07,30,12,41,20.60
2013,07,30,12,42,20.70
2013,07,30,12,43,20.70
2013,07,30,12,44,20.70
2013,07,30,12,45,20.60
2013,07,30,12,46,20.60
2013,07,30,12,47,20.60
2013,07,30,12,48,20.50
2013,07,30,12,49,20.30
2013,07,30,12,50,20.30
2013,07,30,12,51,20.30
2013,07,30,12,52,20.30
2013,07,30,12,53,20.40
2013,07,30,12,54,20.50
2013,07,30,12,55,20.50
2013,07,30,12,56,20.60
2013,07,30,12,57,20.60
2013,07,30,12,58,20.70
2013,07,30,12,59,20.70
2013,07,30,13,00,20.70
2013,07,30,13,01,20.70
2013,07,30,13,02,20.80
2013,07,30,13,03,20.80
2013,07,30,13,04,20.80
2013,07,30,13,05,20.80
2013,07,30,13,06,20.80
2013,07,30,13,07,20.90
2013,07,30,13,08,20.90
2013,07,30,13,09,21.00
2013,07,30,13,10,21.00
2013,07,30,13,11,21.10
2013,07,30,13,12,21.10
2013,07,30,13,13,21.10
2013,07,30,13,14,21.10
2013,07,30,13,15,21.10
2013,07,30,13,16,21.10
2013,07,30,13,17,21.10
2013,07,30,13,18,21.20
2013,07,30,13,19,21.10
2013,07,30,13,20,21.00
2013,07,30,13,21,20.90
2013,07,30,13,22,20.90
2013,07,30,13,23,20.90
2013,07,30,13,24,20.90
2013,07,30,13,25,21.00
2013,07,30,13,26,21.00
2013,07,30,13,27,21.10
2013,07,30,13,28,21.10
2013,07,30,13,29,21.00
2013,07,30,13,30,20.90
2013,07,30,13,31,20.90
2013,07,30,13,32,20.90
2013,07,30,13,33,20.90
2013,07,30,13,34,21.00
2013,07,30,13,35,21.10
2013,07,30,13,36,21.20
2013,07,30,13,37,21.20
2013,07,30,13,38,21.30
2013,07,30,13,39,21.40
2013,07,30,13,40,21.50
2013,07,30,13,41,21.70
2013,07,30,13,42,21.80
2013,07,30,13,43,21.80
2013,07,30,13,44,21.90
2013,07,30,13,45,21.90
2013,07,30,13,46,21.90
2013,07,30,13,47,21.80
2013,07,30,13,48,21.60
2013,07,30,13,49,21.20
2013,07,30,13,50,20.90
2013,07,30,13,51,20.70
2013,07,30,13,52,20.70
2013,07,30,13,53,20.70
2013,07,30,13,54,20.70
2013,07,30,13,55,20.80
2013,07,30,13,56,20.80
2013,07,30,13,57,20.80
2013,07,30,13,58,20.70
2013,07,30,13,59,20.70
2013,07,30,14,00,20.60
2013,07,30,14,01,20.50
2013,07,30,14,02,20.40
2013,07,30,14,03,20.30
2013,07,30,14,04,20.30
2013,07,30,14,05,20.40
2013,07,30,14,06,20.60
2013,07,30,14,07,20.80
2013,07,30,14,08,21.00
2013,07,30,14,09,21.20
2013,07,30,14,10,21.30
2013,07,30,14,11,21.50
2013,07,30,14,12,21.50
2013,07,30,14,13,21.60
2013,07,30,14,14,21.70
2013,07,30,14,15,21.80
2013,07,30,14,16,21.80
2013,07,30,14,17,21.90
2013,07,30,14,18,21.90
2013,07,30,14,19,21.90
2013,07,30,14,20,21.90
2013,07,30,14,21,21.70
2013,07,30,14,22,21.70
2013,07,30,14,23,21.70
2013,07,30,14,24,21.70
2013,07,30,14,25,21.80
2013,07,30,14,26,22.00
2013,07,30,14,27,22.10
2013,07,30,14,28,22.20
2013,07,30,14,29,22.30
2013,07,30,14,30,22.40
2013,07,30,14,31,22.40
2013,07,30,14,32,22.40
2013,07,30,14,33,22.50
2013,07,30,14,34,22.60
2013,07,30,14,35,22.60
2013,07,30,14,36,22.70
2013,07,30,14,37,22.80
2013,07,30,14,38,22.80
2013,07,30,14,39,22.90
2013,07,30,14,40,22.90
2013,07,30,14,41,22.90
2013,07,30,14,42,22.80
2013,07,30,14,43,22.80
2013,07,30,14,44,22.70
2013,07,30,14,45,22.70
2013,07,30,14,46,22.70
2013,07,30,14,47,22.70
2013,07,30,14,48,22.70
2013,07,30,14,49,22.60
2013,07,30,14,50,22.60
2013,07,30,14,51,22.50
2013,07,30,14,52,22.50
2013,07,30,14,53,22.50
2013,07,30,14,54,22.40
2013,07,30,14,55,22.40
2013,07,30,14,56,22.30
2013,07,30,14,57,22.30
2013,07,30,14,58,22.20
2013,07,30,14,59,22.20
2013,07,30,15,00,22.20
2013,07,30,15,01,22.10
2013,07,30,15,02,22.10
2013,07,30,15,03,22.10
2013,07,30,15,04,22.00
2013,07,30,15,05,22.00
2013,07,30,15,06,21.80
2013,07,30,15,07,21.60
2013,07,30,15,08,21.60
2013,07,30,15,09,21.50
2013,07,30,15,10,21.50
2013,07,30,15,11,21.40
2013,07,30,15,12,21.50
2013,07,30,15,13,21.50
2013,07,30,15,14,21.60
2013,07,30,15,15,21.70
2013,07,30,15,16,21.80
2013,07,30,15,17,21.80
2013,07,30,15,18,21.90
2013,07,30,15,19,21.90
2013,07,30,15,20,22.00
2013,07,30,15,21,22.10
2013,07,30,15,22,22.10
2013,07,30,15,23,22.20
2013,07,30,15,24,22.30
2013,07,30,15,25,22.30
2013,07,30,15,26,22.40
2013,07,30,15,27,22.50
2013,07,30,15,28,22.60
2013,07,30,15,29,22.60
2013,07,30,15,30,22.60
2013,07,30,15,31,22.60
2013,07,30,15,32,22.60
2013,07,30,15,33,22.60
2013,07,30,15,34,22.60
2013,07,30,15,35,22.60
2013,07,30,15,36,22.60
2013,07,30,15,37,22.50
2013,07,30,15,38,22.50
2013,07,30,15,39,22.50
2013,07,30,15,40,22.40
2013,07,30,15,41,22.40
2013,07,30,15,42,22.50
2013,07,30,15,43,22.60
2013,07,30,15,44,22.70
2013,07,30,15,45,22.80
2013,07,30,15,46,22.90
2013,07,30,15,47,23.00
2013,07,30,15,48,23.10
2013,07,30,15,49,23.20
2013,07,30,15,50,23.20
2013,07,30,15,51,23.20
2013,07,30,15,52,23.20
2013,07,30,15,53,23.20
2013,07,30,15,54,23.20
2013,07,30,15,55,23.30
2013,07,30,15,56,23.30
2013,07,30,15,57,23.30
2013,07,30,15,58,23.40
2013,07,30,15,59,23.40
2013,07,30,16,00,23.40
2013,07,30,16,01,23.40
2013,07,30,16,02,23.30
2013,07,30,16,03,23.30
2013,07,30,16,04,23.20
2013,07,30,16,05,23.20
2013,07,30,16,06,23.20
2013,07,30,16,07,23.20
2013,07,30,16,08,23.20
2013,07,30,16,09,23.30
2013,07,30,16,10,23.30
2013,07,30,16,11,23.40
2013,07,30,16,12,23.60
2013,07,30,16,13,23.70
2013,07,30,16,14,23.90
2013,07,30,16,15,24.00
2013,07,30,16,16,24.20
2013,07,30,16,17,24.30
2013,07,30,16,18,24.40
2013,07,30,16,19,24.60
2013,07,30,16,20,24.60
2013,07,30,16,21,24.70
2013,07,30,16,22,24.90
2013,07,30,16,23,25.00
2013,07,30,16,24,25.10
2013,07,30,16,25,25.30
2013,07,30,16,26,25.30
2013,07,30,16,27,25.40
2013,07,30,16,28,25.40
2013,07,30,16,29,25.50
2013,07,30,16,30,25.60
2013,07,30,16,31,25.80
2013,07,30,16,32,25.90
2013,07,30,16,33,25.90
2013,07,30,16,34,25.90
2013,07,30,16,35,26.00
2013,07,30,16,36,26.10
2013,07,30,16,37,26.20
2013,07,30,16,38,26.20
2013,07,30,16,39,26.30
2013,07,30,16,40,26.30
2013,07,30,16,41,26.30
2013,07,30,16,42,26.30
2013,07,30,16,43,26.30
2013,07,30,16,44,26.30
2013,07,30,16,45,26.30
2013,07,30,16,46,26.20
2013,07,30,16,47,26.10
2013,07,30,16,48,26.00
2013,07,30,16,49,25.80
2013,07,30,16,50,25.80
2013,07,30,16,51,25.80
2013,07,30,16,52,25.70
2013,07,30,16,53,25.70
2013,07,30,16,54,25.70
2013,07,30,16,55,25.70
2013,07,30,16,56,25.70
2013,07,30,16,57,25.70
2013,07,30,16,58,25.70
2013,07,30,16,59,25.70
2013,07,30,17,00,25.60
2013,07,30,17,01,25.60
2013,07,30,17,02,25.60
2013,07,30,17,03,25.60
2013,07,30,17,04,25.50
2013,07,30,17,05,25.40
2013,07,30,17,06,25.40
2013,07,30,17,07,25.40
2013,07,30,17,08,25.40
2013,07,30,17,09,25.40
2013,07,30,17,10,25.40
2013,07,30,17,11,25.40
2013,07,30,17,12,25.40
2013,07,30,17,13,25.40
2013,07,30,17,14,25.50
2013,07,30,17,15,25.60
2013,07,30,17,16,25.70
2013,07,30,17,17,25.70
2013,07,30,17,18,25.80
2013,07,30,17,19,25.80